{"data":{"norad_id":59859,"intl_designator":"2024-098B","name":"STARLINK-31442","alt_names":[],"object_type":"PAYLOAD","status":"ACTIVE","operator":null,"country":"US","launch_date":"2024-05-24","launch_site_code":"AFETR","launch_vehicle":null,"mission":null,"orbit_class":"UNKNOWN","rcs_meters":null,"size_class":null,"mass_kg":null,"dimensions":null,"purposes":["comms"],"wikipedia_slug":null,"has_3d_model":false,"image_url":null,"decayed_at":null,"tle_current":{"epoch":"2026-09-21T08:15:32.325696Z","epoch_age_seconds":101604,"freshness":"FRESH","line1":"1 59859U 24098B   26264.34412414 -.00006280  00000+0 -21892-3 0  9994","line2":"2 59859  43.0037 256.9402 0001894 263.9108  96.1528 15.27571838131726","mean_motion":15.27571838,"eccentricity":0.0001894,"inclination_deg":43.0037,"raan_deg":256.9402,"arg_perigee_deg":263.9108,"mean_anomaly_deg":96.1528,"bstar":-0.00021892,"rev_number":13172,"period_min":94.267252392224,"perigee_km":481.7740228372,"apogee_km":484.37304938828,"semimajor_km":6861.2105361127,"source":"CELESTRAK","updated_at":"2026-09-22T09:00:49.100428Z"}}}